{"data":{"norad_id":63798,"epoch":"2026-09-20T19:33:27.686592Z","epoch_age_seconds":122630,"freshness":"FRESH","line1":"1 63798U 25091Z   26263.81490378  .00014167  00000+0  52323-3 0  9995","line2":"2 63798  43.0050  30.5938 0001754 264.8909  95.1742 15.27587528 78744","mean_motion":15.27587528,"eccentricity":0.0001754,"inclination_deg":43.005,"raan_deg":30.5938,"arg_perigee_deg":264.8909,"mean_anomaly_deg":95.1742,"bstar":0.00052323,"rev_number":7874,"period_min":94.266284164111,"perigee_km":481.82310650456,"apogee_km":484.23000267952,"semimajor_km":6861.163554592,"source":"CELESTRAK","updated_at":"2026-09-21T09:00:35.102540Z"}}